Location: El Escondido
(32.5691°N, 116.4250°W)
Time: 09:42:13
(UTC+00:00)

Cosmos 1805 - Pass Details

Date: 13 April 2024
Orbit: 490 x 494 km, 82.5° (Epoch: 22 May)

Event Time Altitude Azimuth Distance (km) Brightness Sun altitude
Rises 12:08:22 0° 340° (NNW) 2,569 6.8 -14.9°
Reaches altitude 10° 12:10:39 10° 329° (NNW) 1,682 5.7 -14.4°
Maximum altitude 12:13:51 29° 269° (W) 930 3.9 -13.8°
Enters shadow 12:15:16 22° 231° (SW) 1,113 4.3 -13.5°
